Buckhead, Georgia, United States (30625)
Lat: 33.57N, Lon: 83.36W
Wx Zone: GAZ049
Local Info
Past Weather Observations for Today

NOTE: This archive is for the closest National Weather Service station to Buckhead. Information may differ from the station used for current weather conditions.

Click here for Long-term Archive

Time Weather Temperature Dewpoint Humidity Pressure Winds Precip Visibility
10:55
Mostly Cloudy
86°F / 30°C 73°F / 23°C 66% 29.92 in
(1013 mb)
SSW 4.6 mph
(SSW 7 kph)
- 10SM
10:35
Partly Cloudy
86°F / 30°C 73°F / 23°C 66% 29.89 in
(1012 mb)
SSW 5.8 mph
(SSW 9 kph)
- 10SM
10:15
Partly Cloudy
84°F / 29°C 73°F / 23°C 70% 29.92 in
(1013 mb)
SSW 6.9 mph
(SSW 11 kph)
- 10SM
09:55
Partly Cloudy
82°F / 28°C 73°F / 23°C 74% 29.92 in
(1013 mb)
SSW 4.6 mph
(SSW 7 kph)
- 10SM
09:35
Clear
82°F / 28°C 73°F / 23°C 74% 29.89 in
(1012 mb)
WNW 9.2 mph
(WNW 15 kph)
- 10SM
09:15
Clear
81°F / 27°C 73°F / 23°C 79% 29.92 in
(1013 mb)
SSW 5.8 mph
(SSW 9 kph)
- 10SM
08:55
Clear
81°F / 27°C 73°F / 23°C 79% 29.92 in
(1013 mb)
SSW 4.6 mph
(SSW 7 kph)
- 7SM
08:35
Clear
79°F / 26°C 73°F / 23°C 84% 29.92 in
(1013 mb)
SSW 5.8 mph
(SSW 9 kph)
- 7SM
08:15
Clear
77°F / 25°C 73°F / 23°C 89% 29.92 in
(1013 mb)
SSW 3.5 mph
(SSW 6 kph)
- 7SM
07:55
Clear
77°F / 25°C 72°F / 22°C 83% 29.92 in
(1013 mb)
SSW 3.5 mph
(SSW 6 kph)
- 7SM
07:35
Clear
77°F / 25°C 72°F / 22°C 83% 29.89 in
(1012 mb)
Calm - 7SM
07:15
Clear
77°F / 25°C 72°F / 22°C 83% 29.89 in
(1012 mb)
SSW 4.6 mph
(SSW 7 kph)
- 7SM
06:55
Clear
77°F / 25°C 72°F / 22°C 83% 29.89 in
(1012 mb)
SSW 3.5 mph
(SSW 6 kph)
- 7SM
06:35
Clear
77°F / 25°C 72°F / 22°C 83% 29.89 in
(1012 mb)
Calm - 7SM
06:15
Clear
77°F / 25°C 72°F / 22°C 83% 29.89 in
(1012 mb)
SW 3.5 mph
(SW 6 kph)
- 10SM
05:55
Clear
77°F / 25°C 72°F / 22°C 83% 29.89 in
(1012 mb)
SW 3.5 mph
(SW 6 kph)
- 10SM
05:35
Clear
77°F / 25°C 72°F / 22°C 83% 29.89 in
(1012 mb)
SW 3.5 mph
(SW 6 kph)
- 10SM
05:15
Clear
77°F / 25°C 72°F / 22°C 83% 29.89 in
(1012 mb)
SSW 3.5 mph
(SSW 6 kph)
- 10SM
04:55
Clear
77°F / 25°C 72°F / 22°C 83% 29.89 in
(1012 mb)
Calm - 10SM
04:35
Partly Cloudy
77°F / 25°C 72°F / 22°C 83% 29.89 in
(1012 mb)
SSW 4.6 mph
(SSW 7 kph)
- 10SM
04:15
Mostly Cloudy
77°F / 25°C 72°F / 22°C 83% 29.89 in
(1012 mb)
SW 3.5 mph
(SW 6 kph)
- 10SM
03:55
Mostly Cloudy
77°F / 25°C 72°F / 22°C 83% 29.89 in
(1012 mb)
SW 3.5 mph
(SW 6 kph)
- 10SM
03:35
Clear
77°F / 25°C 72°F / 22°C 83% 29.89 in
(1012 mb)
SSW 3.5 mph
(SSW 6 kph)
- 10SM
03:15
Clear
77°F / 25°C 72°F / 22°C 83% 29.89 in
(1012 mb)
Calm - 10SM
02:55
Clear
79°F / 26°C 72°F / 22°C 79% 29.89 in
(1012 mb)
SW 3.5 mph
(SW 6 kph)
- 10SM
02:35
Clear
79°F / 26°C 72°F / 22°C 79% 29.89 in
(1012 mb)
SW 3.5 mph
(SW 6 kph)
- 10SM
02:15
Clear
79°F / 26°C 72°F / 22°C 79% 29.92 in
(1013 mb)
Calm - 10SM
01:55
Clear
79°F / 26°C 72°F / 22°C 79% 29.89 in
(1012 mb)
SSW 3.5 mph
(SSW 6 kph)
- 10SM
01:35
Clear
79°F / 26°C 72°F / 22°C 79% 29.92 in
(1013 mb)
SSW 4.6 mph
(SSW 7 kph)
- 10SM
01:15
Clear
79°F / 26°C 72°F / 22°C 79% 29.92 in
(1013 mb)
SSW 3.5 mph
(SSW 6 kph)
- 10SM
00:55
Clear
81°F / 27°C 72°F / 22°C 74% 29.92 in
(1013 mb)
SW 3.5 mph
(SW 6 kph)
- 10SM
00:35
Clear
81°F / 27°C 72°F / 22°C 74% 29.92 in
(1013 mb)
SSW 3.5 mph
(SSW 6 kph)
- 10SM
00:15
Clear
81°F / 27°C 70°F / 21°C 70% 29.92 in
(1013 mb)
SSW 5.8 mph
(SSW 9 kph)
- 10SM
Time Weather Temperature Dewpoint Humidity Pressure Winds Precip Visibility


Weather for websites

WeatherForYou.com, LLC is not responsible for any damages or problems caused by this service. Current weather conditions are obtained from the closest station including government and personal stations which may have varying degrees of accuracy. Weather forecasts are derived from the NOAA NDFD. Like all things, this site belongs to Jesus Christ... He just trusts me to maintain it. If you have any questions or comments email webmaster@weatherforyou.com

Copyright © 2014, WeatherForYou.com LLC. All rights reserved.